Погода в Щиграх

Россия / Курганская область     55°59′13″N   66°37′12″E
темп.,
°C
ветер,
м/с
пор.,
м/с
влажн.,
%
обл.,
%
осадки,
мм/ч
давл.,
гПа
погр.,
м
7 июля, чт
чт723:00+11ссз3698100 0.2 1010223
02:00+12ссз3698100 0.4 1010233
05:00+12ссз3699100 0.4 1011158
08:00+16ссв3593100 0.2 1012293
11:00+21св587157 0.3 10131212
14:00+22всв687560 2.3 10131260
17:00+22св57755 3.9 10141136
20:00+19ссв38875 0.9 1014212
8 июля, пт
пт823:00+15ссв34917 0.9 101661
02:00+14ссв359237 0.0 101568
05:00+14св35920 0.0 101695
08:00+19всв358011 0.0 1017292
11:00+23всв456472 0.9 1017926
14:00+24всв34531 0.2 10171635
17:00+24всв34580 0.2 10171720
20:00+21св22760 0.0 101714
9 июля, сб
сб923:00+17в128510 0.0 101811
02:00+15вюв11845 0.0 101811
05:00+15с11830 0.0 101811
08:00+20ссз117224 0.0 1019202
11:00+24сз015967 0.0 1018773
14:00+25св115150 0.0 10181890
17:00+24ссз115974 0.0 1017556
20:00+22ююз116844 0.0 101711
10 июля, вс
вс1023:00+17зюз227717 0.0 101811
02:00+16сз1180100 0.0 101811
05:00+17сз227759 0.0 101817
08:00+21ссв127493 0.0 1019171
11:00+24ссз226531 0.0 1019417
14:00+26с115024 0.0 10181878
17:00+26св225414 0.0 10181616
20:00+23в117137 0.0 101911
11 июля, пн
пн1123:00+19сз117535 0.0 101911
02:00+18с228333 0.0 102013
05:00+17с228414 0.0 102013
08:00+22ссз22735 0.0 1020232
11:00+25с22615 0.0 1020855
14:00+27ссз22535 0.0 10201653
17:00+27ссз225532 0.0 10201554
20:00+23ссз227428 0.1 102017